When you browse on this site, cookies collect data to enhance your experience and personalize the content and advertising you see.
Visit our Privacy Policy to learn more. By continuing to use the site, you agree to this use of cookies and data.
  • In Lithuania
  • List of Countries
  • For 7 days
  • Water Temperature
  • Satellite Maps
  • Weather Map
  • Weather Widgets
  • user-avatar
    Login

    Hourly Weather Staryy-oskol

    Today, 18 March, Monday

    Time Temperature Precipitation Wind Pressure Humidity
    00:00 +2°C° 0 mm 1 mps 746 mmHg 98%
    01:00 +2°C° 0 mm 1 mps 746 mmHg 98%
    02:00 +2°C° 0 mm 1 mps 747 mmHg 97%
    03:00 +2°C° 0 mm 1 mps 747 mmHg 97%
    04:00 +2°C° 0 mm 1 mps 747 mmHg 96%
    05:00 +2°C° 0 mm 1 mps 748 mmHg 96%
    06:00 +2°C° 0 mm 1 mps 748 mmHg 95%
    07:00 +2°C° 0 mm 1 mps 748 mmHg 96%
    08:00 +2°C° 0 mm 1 mps 749 mmHg 96%
    09:00 +1°C° 0 mm 2 mps 749 mmHg 97%
    10:00 +2°C° 0 mm 2 mps 750 mmHg 97%
    11:00 +1°C° 0 mm 3 mps 750 mmHg 97%
    12:00 +2°C° 0 mm 3 mps 750 mmHg 97%
    13:00 +2°C° 0 mm 3 mps 750 mmHg 96%
    14:00 +2°C° 0 mm 3 mps 750 mmHg 94%
    15:00 +3°C° 0 mm 3 mps 750 mmHg 93%
    16:00 +3°C° 0 mm 3 mps 750 mmHg 93%
    17:00 +2°C° 0 mm 3 mps 751 mmHg 94%
    18:00 +2°C° 0 mm 3 mps 751 mmHg 94%
    19:00 +2°C° 0 mm 3 mps 751 mmHg 93%
    20:00 0°C° 0 mm 4 mps 751 mmHg 92%
    21:00 0°C° 0 mm 4 mps 751 mmHg 91%
    22:00 0°C° 0 mm 4 mps 751 mmHg 90%
    23:00 0°C° 0 mm 4 mps 752 mmHg 89%

    Tomorrow, 19 March, Tuesday

    Time Temperature Precipitation Wind Pressure Humidity
    00:00 0°C° 0 mm 4 mps 752 mmHg 88%
    01:00 0°C° 0 mm 4 mps 752 mmHg 87%
    02:00 -1°C° 0 mm 4 mps 752 mmHg 87%
    03:00 -1°C° 0 mm 4 mps 752 mmHg 87%
    04:00 -1°C° 0 mm 4 mps 752 mmHg 88%
    05:00 0°C° 0 mm 3 mps 752 mmHg 89%
    06:00 0°C° 0 mm 3 mps 752 mmHg 89%
    07:00 0°C° 0 mm 4 mps 752 mmHg 89%
    08:00 0°C° 0 mm 4 mps 752 mmHg 89%
    09:00 +1°C° 0 mm 4 mps 752 mmHg 88%
    10:00 +3°C° 0 mm 4 mps 752 mmHg 86%
    11:00 +3°C° 0 mm 5 mps 752 mmHg 84%
    12:00 +6°C° 0 mm 5 mps 752 mmHg 82%
    13:00 +6°C° 0 mm 5 mps 752 mmHg 80%
    14:00 +7°C° 0 mm 5 mps 752 mmHg 77%
    15:00 +7°C° 0 mm 4 mps 751 mmHg 75%
    16:00 +7°C° 0 mm 4 mps 751 mmHg 76%
    17:00 +7°C° 0 mm 3 mps 751 mmHg 78%
    18:00 +5°C° 0 mm 3 mps 751 mmHg 79%
    19:00 +4°C° 0 mm 3 mps 751 mmHg 81%
    20:00 +4°C° 0 mm 3 mps 751 mmHg 82%
    21:00 +3°C° 0 mm 3 mps 751 mmHg 83%
    22:00 +3°C° 0 mm 3 mps 751 mmHg 83%
    23:00 +2°C° 0 mm 3 mps 751 mmHg 84%

    Day after tomorrow, 20 March, Wednesday

    Time Temperature Precipitation Wind Pressure Humidity
    00:00 +2°C° 0 mm 3 mps 751 mmHg 84%
    01:00 +2°C° 0 mm 3 mps 751 mmHg 84%
    02:00 +2°C° 0 mm 3 mps 751 mmHg 84%
    03:00 +2°C° 0 mm 3 mps 751 mmHg 84%
    04:00 +2°C° 0 mm 3 mps 751 mmHg 84%
    05:00 +3°C° 0 mm 2 mps 751 mmHg 84%
    06:00 +3°C° 0 mm 2 mps 751 mmHg 85%
    07:00 +4°C° 0 mm 2 mps 751 mmHg 85%
    08:00 +4°C° 0 mm 2 mps 751 mmHg 86%
    09:00 +4°C° 0 mm 2 mps 751 mmHg 86%
    10:00 +4°C° 0.2 mm 2 mps 751 mmHg 88%
    11:00 +4°C° 0.2 mm 2 mps 751 mmHg 90%
    12:00 +4°C° 0.2 mm 2 mps 751 mmHg 91%
    13:00 +5°C° 0 mm 2 mps 751 mmHg 87%
    14:00 +4°C° 0 mm 3 mps 752 mmHg 84%
    15:00 +5°C° 0 mm 3 mps 752 mmHg 80%
    16:00 +4°C° 0 mm 3 mps 752 mmHg 80%
    17:00 +5°C° 0 mm 2 mps 752 mmHg 79%
    18:00 +5°C° 0 mm 2 mps 752 mmHg 79%
    19:00 +4°C° 0 mm 2 mps 752 mmHg 80%
    20:00 +3°C° 0 mm 2 mps 752 mmHg 82%
    21:00 +3°C° 0 mm 1 mps 752 mmHg 83%
    22:00 +2°C° 0 mm 1 mps 752 mmHg 84%
    23:00 +2°C° 0 mm 1 mps 752 mmHg 84%

    21 March, Thursday

    Time Temperature Precipitation Wind Pressure Humidity
    00:00 +2°C° 0 mm 1 mps 752 mmHg 84%
    01:00 -1°C° 0 mm 2 mps 752 mmHg 84%
    02:00 -1°C° 0 mm 2 mps 752 mmHg 84%
    03:00 -1°C° 0 mm 2 mps 752 mmHg 85%
    04:00 -1°C° 0 mm 2 mps 751 mmHg 85%
    05:00 -1°C° 0 mm 2 mps 751 mmHg 86%
    06:00 -1°C° 0 mm 2 mps 750 mmHg 86%
    07:00 -1°C° 0 mm 3 mps 750 mmHg 81%
    08:00 -1°C° 0 mm 4 mps 749 mmHg 77%
    09:00 0°C° 0 mm 4 mps 749 mmHg 72%
    10:00 0°C° 0.1 mm 5 mps 749 mmHg 71%
    11:00 +1°C° 0.1 mm 5 mps 748 mmHg 70%
    12:00 +1°C° 0.1 mm 5 mps 748 mmHg 69%
    13:00 +1°C° 0.3 mm 5 mps 747 mmHg 72%
    14:00 +1°C° 0.3 mm 5 mps 747 mmHg 75%
    15:00 +1°C° 0.3 mm 5 mps 747 mmHg 77%
    16:00 +1°C° 0.1 mm 5 mps 747 mmHg 78%
    17:00 +1°C° 0.1 mm 4 mps 747 mmHg 78%
    18:00 +1°C° 0.1 mm 4 mps 747 mmHg 79%
    19:00 0°C° 0.1 mm 4 mps 747 mmHg 81%
    20:00 0°C° 0.1 mm 4 mps 747 mmHg 84%
    21:00 -1°C° 0.1 mm 4 mps 747 mmHg 87%
    22:00 -1°C° 0 mm 4 mps 747 mmHg 88%
    23:00 -2°C° 0 mm 4 mps 747 mmHg 89%

    22 March, Friday

    Time Temperature Precipitation Wind Pressure Humidity
    00:00 -2°C° 0 mm 4 mps 747 mmHg 90%
    01:00 -2°C° 0 mm 4 mps 748 mmHg 91%
    02:00 -2°C° 0 mm 4 mps 748 mmHg 91%
    03:00 -3°C° 0 mm 4 mps 748 mmHg 92%
    04:00 -3°C° 0 mm 4 mps 748 mmHg 92%
    05:00 -3°C° 0 mm 4 mps 748 mmHg 93%
    06:00 -3°C° 0 mm 4 mps 749 mmHg 94%
    07:00 -3°C° 0 mm 4 mps 749 mmHg 91%
    08:00 -2°C° 0 mm 4 mps 749 mmHg 88%
    09:00 -2°C° 0 mm 4 mps 750 mmHg 86%
    10:00 -1°C° 0 mm 4 mps 750 mmHg 83%
    11:00 -1°C° 0 mm 4 mps 750 mmHg 80%
    12:00 0°C° 0 mm 4 mps 750 mmHg 77%
    13:00 +1°C° 0 mm 3 mps 750 mmHg 75%
    14:00 +2°C° 0 mm 3 mps 750 mmHg 74%
    15:00 +2°C° 0 mm 3 mps 750 mmHg 72%
    16:00 +3°C° 0 mm 2 mps 750 mmHg 73%
    17:00 +4°C° 0 mm 1 mps 750 mmHg 74%
    18:00 +4°C° 0 mm 1 mps 750 mmHg 75%
    19:00 +3°C° 0 mm 1 mps 750 mmHg 76%
    20:00 +2°C° 0 mm 2 mps 750 mmHg 78%
    21:00 +1°C° 0 mm 2 mps 749 mmHg 79%
    22:00 0°C° 0 mm 3 mps 749 mmHg 80%
    23:00 +1°C° 0 mm 3 mps 749 mmHg 80%

    23 March, Saturday

    Time Temperature Precipitation Wind Pressure Humidity
    00:00 0°C° 0 mm 4 mps 748 mmHg 81%
    01:00 0°C° 0 mm 4 mps 748 mmHg 84%
    02:00 +1°C° 0 mm 4 mps 747 mmHg 88%
    03:00 +1°C° 0 mm 4 mps 747 mmHg 91%
    04:00 +1°C° 0.2 mm 5 mps 746 mmHg 92%
    05:00 +2°C° 0.2 mm 5 mps 745 mmHg 93%
    06:00 +2°C° 0.2 mm 6 mps 744 mmHg 94%
    07:00 +3°C° 0.4 mm 6 mps 744 mmHg 94%
    08:00 +3°C° 0.4 mm 6 mps 743 mmHg 93%
    09:00 +3°C° 0.4 mm 7 mps 742 mmHg 92%
    10:00 +4°C° 0.3 mm 7 mps 742 mmHg 87%
    11:00 +5°C° 0.3 mm 7 mps 742 mmHg 82%
    12:00 +6°C° 0.3 mm 7 mps 741 mmHg 77%
    13:00 +7°C° 0 mm 8 mps 741 mmHg 65%
    14:00 +7°C° 0 mm 9 mps 741 mmHg 52%
    15:00 +8°C° 0 mm 10 mps 741 mmHg 39%
    16:00 +6°C° 0 mm 9 mps 742 mmHg 42%
    17:00 +5°C° 0 mm 8 mps 742 mmHg 45%
    18:00 +4°C° 0 mm 7 mps 742 mmHg 48%
    19:00 +2°C° 0 mm 6 mps 743 mmHg 53%
    20:00 +1°C° 0 mm 5 mps 744 mmHg 58%
    21:00 0°C° 0 mm 4 mps 744 mmHg 64%
    22:00 0°C° 0 mm 5 mps 744 mmHg 64%
    23:00 -1°C° 0 mm 5 mps 744 mmHg 65%
    Show more